This is the latest recevied weather packets stored in our database for station/object KD7CTY. If no packets are shown the sender has not sent any weather packets the latest 10 day(s).
| Time | Temp. | Humidity | Pressure | Rain* | Wind** | Luminosity | Snow |
|---|---|---|---|---|---|---|---|
| 1777236616 | 18.89° C | 43% | 1008.1 hPa | 0 mm | - | 705 W/m² | - |
| 1777236316 | 19.44° C | 36% | 1008 hPa | 0 mm | - | 701 W/m² | - |
| 1777236013 | 20° C | 39% | 1008.3 hPa | 0 mm | - | 701 W/m² | - |
| 1777235709 | 18.89° C | 38% | 1008.1 hPa | 0 mm | - | 714 W/m² | - |
| 1777235406 | 18.33° C | 40% | 1008.1 hPa | 0 mm | - | 717 W/m² | - |
| 1777235102 | 19.44° C | 39% | 1008.4 hPa | 0 mm | - | 703 W/m² | - |
| 1777234798 | 19.44° C | 41% | 1008.1 hPa | 0 mm | - | 655 W/m² | - |
| 1777234494 | 19.44° C | 40% | 1008.5 hPa | 0 mm | - | 610 W/m² | - |
| 1777234189 | 19.44° C | 41% | 1008.3 hPa | 0 mm | - | 678 W/m² | - |
| 1777233885 | 19.44° C | 44% | 1008.1 hPa | 0 mm | - | 799 W/m² | - |
| 1777233582 | 18.89° C | 40% | 1008.5 hPa | 0 mm | - | 804 W/m² | - |
| 1777233281 | 17.78° C | 46% | 1008.5 hPa | 0 mm | - | 796 W/m² | - |
| 1777232977 | 18.33° C | 48% | 1008.3 hPa | 0 mm | - | 798 W/m² | - |
| 1777232674 | 18.89° C | 45% | 1008.3 hPa | 0 mm | - | 835 W/m² | - |
| 1777232372 | 17.78° C | 44% | 1008.5 hPa | 0 mm | - | 851 W/m² | - |
| 1777232068 | 18.89° C | 44% | 1008.3 hPa | 0 mm | - | 866 W/m² | - |
| 1777231766 | 19.44° C | 35% | 1008.4 hPa | 0 mm | - | 881 W/m² | - |
| 1777231462 | 18.89° C | 35% | 1008.4 hPa | 0 mm | - | 886 W/m² | - |
| 1777231159 | 18.89° C | 35% | 1008.6 hPa | 0 mm | - | 895 W/m² | - |
| 1777230854 | 17.78° C | 33% | 1008.5 hPa | 0 mm | - | 900 W/m² | - |
| 1777230550 | 17.78° C | 41% | 1008.5 hPa | 0 mm | - | 903 W/m² | - |
| 1777230246 | 18.89° C | 33% | 1008.5 hPa | 0 mm | - | 908 W/m² | - |
| 1777229943 | 18.33° C | 33% | 1008.5 hPa | 0 mm | - | 895 W/m² | - |
| 1777229639 | 18.33° C | 34% | 1008.5 hPa | 0 mm | - | 884 W/m² | - |
| 1777229336 | 18.33° C | 35% | 1008.5 hPa | 0 mm | - | 883 W/m² | - |
* Rain latest hour (hover to see other rain measurements)
** Current wind speed in m/s (hover to see current wind gust speed)